Tracking 29487 objects as of 11-Sep-2024
HD Live streaming from Space Station
objects crossing your sky now

SITRO-AIS-50

Track SITRO-AIS-50 now!
10-day predictions
SITRO-AIS-50 is classified as:


NORAD ID: 59061
Int'l Code: 2024-039L
Perigee: 461.9 km
Apogee: 476.2 km
Inclination: 97.4 °
Period: 93.8 minutes
Semi major axis: 6840 km
RCS: Unknown
Launch date: February 29, 2024
Source: (TBD)
Launch site: VOSTOCHNY COSMODROME (VOSTO)

Uplink (MHz):
Downlink (MHz): 401.180
Beacon (MHz):
Mode: 2k4 GMSK_USP
Call sign:
Status: Unknown

Your satellite tracking list
Your tracking list is empty




NASA's NSSDC Master Catalog

Two Line Element Set (TLE):
1 59061U 24039L   24255.60662600  .00054443  00000-0  16102-2 0  9995
2 59061  97.3979 217.3899 0010480 265.1593  94.8453 15.34675704 29826
Source of the keplerian elements: AFSPC